Location: Arezzo
(43.4170°N, 11.8830°E)
Time: 00:56:30
(UTC+01:00)

STARLINK-2709 - Pass Details

Date: 29 October 2021
Orbit: 546 x 548 km, 53.1° (Epoch: 01 December)

Event Time Altitude Azimuth Distance (km) Brightness Sun altitude
Exits shadow 06:43:18 17° 273° (W) 1,420 5.1 -11.6°
Maximum altitude 06:46:04 38° 336° (NNW) 838 4.3 -11.1°
Drops below altitude 10° 06:49:57 10° 46° (NE) 1,821 6.8 -10.4°
Sets 06:52:18 0° 54° (NE) 2,716 7.9 -9.9°
